[Iaude] MPEC P72: 2024 PZ [a=1.34,e=0.12,i=25.8,H=23.8]

mpec at cfa.harvard.edu mpec at cfa.harvard.edu
Tue Aug 6 02:37:53 EDT 2024


M.P.E.C. 2024-P72                                Issued 2024 August 6, 06:36 UT

     The Minor Planet Electronic Circulars contain information on unusual
         minor planets, routine data on comets and natural satellites,
         and occasional editorial announcements.  They are published
    on behalf of Division F of the International Astronomical Union by the
          Minor Planet Center, Smithsonian Astrophysical Observatory,
                          Cambridge, MA 02138, U.S.A.
			  
             Prepared using the Tamkin Foundation Computer Network

                              MPC at CFA.HARVARD.EDU
            URL https://www.minorplanetcenter.net/    ISSN 1523-6714

                                    2024 PZ                                     


Observations:
     K24P00Z* C2024 08 03.40157520 21 40.896-22 51 56.47         21.28wXEP072F52
     K24P00Z  C2024 08 03.41208120 21 37.533-22 50 37.01         21.09wXEP072F52
     K24P00Z  C2024 08 03.43681920 21 29.634-22 47 30.52         20.85wXEP072F52
     K24P00Z 3C2024 08 04.39495220 16 48.576-20 46 42.47         21.04GVEP072T14
     K24P00Z 3C2024 08 04.39592920 16 48.277-20 46 35.14         20.95GVEP072T14
     K24P00Z 3C2024 08 04.39698820 16 47.947-20 46 27.11         20.90GVEP072T14
     K24P00Z 3C2024 08 04.39796720 16 47.643-20 46 19.67         20.83GVEP072T14
     K24P00Z KC2024 08 04.90415020 14 22.96 -19 42 35.9          20.2 GXEP072L01
     K24P00Z KC2024 08 04.90919620 14 21.47 -19 41 57.5          20.7 GXEP072L01
     K24P00Z pC2024 08 04.91820320 14 18.75 -19 40 49.9          20.6 GXEP072L01
     K24P00Z KC2024 08 06.23991520 08 13.490-16 54 05.41         21.3 GVEP072H01
     K24P00Z KC2024 08 06.24526120 08 11.948-16 53 25.04         21.0 GVEP072H01
     K24P00Z KC2024 08 06.25571920 08 08.938-16 52 06.38         20.7 GVEP072H01
     K24P00Z KC2024 08 06.26219320 08 07.076-16 51 17.59         20.7 GVEP072H01

Observer details:
F52 Pan-STARRS 2, Haleakala.  Observers J. Herman, T. Lowe, P. Minguez, A.
    Schultz, I. Smith.  Measurers K. Chambers, T. de Boer, J. Fairlamb, H.
    Gao, M. Huber, C.-C. Lin, E. Magnier, Y. Ramanjooloo, R. Wainscoat, R.
    Weryk.  1.8-m Ritchey-Chretien + CCD.
H01 Magdalena Ridge Observatory, Socorro.  Observers W. H. Ryan, E. V. Ryan.
    Measurer W. H. Ryan.  2.4-m f/8.9 Ritchey-Chretien + CCD.
L01 Visnjan Observatory, Tican.  Observers K. Korlevic, E. Pettarin.  Measurer
    E. Pettarin.  1.0-m f/2.9 reflector + CCD.
T14 Canada-France-Hawaii Telescope, Maunakea.  Observers R. Wainscoat, A.
    Acohido, H. Flewelling.  Measurers R. Weryk, R. Wainscoat.  3.6-m f/4.1
    reflector + CCD.

Orbital elements:
2024 PZ                                                  Earth MOID = 0.1772 AU
Epoch 2024 Oct. 17.0 TT = JDT 2460600.5                 MPC                     
M  32.14567              (2000.0)            P               Q                  
n   0.63468186     Peri.   18.10251     +0.83382193     +0.44332848             
a   1.3410099      Node   310.90444     -0.54484050     +0.56502486             
e   0.1159155      Incl.   25.79917     -0.08882463     +0.69584967             
P   1.55           H   23.81          G   0.15           U   9                  
Residuals in seconds of arc
240803 F52  0.0   0.1-    240804 T14  0.1-  0.0     240806 H01  0.2+  0.0
240803 F52  0.0   0.2+    240804 T14  0.1-  0.0     240806 H01  0.1+  0.1+
240803 F52  0.2+  0.1-    240804 L01  0.3+  0.4-    240806 H01  0.1-  0.0
240804 T14  0.1-  0.0     240804 L01  0.6+  0.2-    240806 H01  0.1-  0.0
240804 T14  0.1-  0.0     240804 L01  0.2+  0.8-

Ephemeris:
2024 PZ                  a,e,i = 1.34, 0.12, 26                  q = 1.1856
Date    TT    R. A. (2000) Decl.     Delta      r    Elong.  Phase     V
2024 07 07    22 48 15.8 -56 31 50   0.2917  1.2161   127.4    41.6    23.2
...
2024 07 22    21 32 15.7 -44 42 46   0.2091  1.2012   149.8    25.2    22.0
...
2024 07 30    20 45 06.8 -31 45 52   0.1842  1.1952   166.6    11.3    21.2
...
2024 08 05    20 13 55.6 -19 29 51   0.1801  1.1916   168.6     9.7    21.1
2024 08 06    20 09 18.2 -17 23 44   0.1808  1.1911   166.8    11.3    21.2
2024 08 07    20 04 51.8 -15 18 26   0.1819  1.1906   164.7    13.0    21.3
...
2024 08 13    19 42 07.9 -03 35 27   0.1957  1.1881   150.9    24.5    21.8
...
2024 08 21    19 21 36.6 +08 30 36   0.2298  1.1860   135.3    36.9    22.5
...
2024 09 05    19 05 48.5 +21 21 05   0.3174  1.1865   117.0    49.2    23.5

A. U. Tomatic                (C) Copyright 2024 MPC           M.P.E.C. 2024-P72





More information about the Iaude mailing list